Location: Newark
(44.5425°N, 10.7801°E)
Time: 01:00:12
(UTC+00:00)

ISS - Visible Passes

Search period start: 28 January 2020 00:00
Search period end: 07 February 2020 00:00
Orbit: 416 x 423 km, 51.6° (Epoch: 28 January)

Date Brightness Start Highest point End Pass type
(mag) Time Alt. Az. Time Alt. Az. Time Alt. Az.
28 Jan -2.2 17:28:57 10° WNW 17:31:53 26° N 17:33:40 17° NE visible
28 Jan -0.5 19:06:27 10° NW 19:06:37 11° NW 19:06:37 11° NW visible
29 Jan -1.9 18:18:48 10° NW 18:21:00 23° NNW 18:21:00 23° NNW visible
30 Jan -2.1 17:31:05 10° NW 17:33:54 23° N 17:35:24 17° NE visible
30 Jan -0.5 19:08:05 10° NW 19:08:22 12° NW 19:08:22 12° NW visible
31 Jan -2.2 18:20:31 10° NW 18:22:46 27° NNW 18:22:46 27° NNW visible
01 Feb -2.4 17:32:54 10° NW 17:35:51 27° N 17:37:13 20° NE visible
01 Feb -0.6 19:09:37 10° WNW 19:10:10 14° WNW 19:10:10 14° WNW visible
02 Feb -2.9 18:22:02 10° NW 18:24:40 43° NNW 18:24:40 43° NNW visible
03 Feb -3.1 17:34:28 10° NW 17:37:41 39° NNE 17:39:14 24° ENE visible
03 Feb -0.8 19:11:18 10° WNW 19:12:13 17° WNW 19:12:13 17° WNW visible
04 Feb -3.5 18:23:34 10° WNW 18:26:53 67° SW 18:26:53 67° SW visible
05 Feb -3.8 17:35:55 10° WNW 17:39:19 79° NNE 17:41:41 18° ESE visible
05 Feb -0.7 19:13:35 10° W 19:14:40 14° WSW 19:14:40 14° WSW visible
06 Feb -1.7 18:25:24 10° W 18:28:16 25° SW 18:29:39 19° S visible
